Location: Albany
(35.0000°S, 118.0000°E)
Time: 19:10:34
(UTC-04:00)

Vanguard 3 - Visible Passes

Search period start: 01 May 2016 00:00
Search period end: 11 May 2016 00:00
Orbit: 509 x 3267 km, 33.3° (Epoch: 30 April)

Date Brightness Start Highest point End Pass type
(mag) Time Alt. Az. Time Alt. Az. Time Alt. Az.
01 May 10.6 05:24:33 10° W 05:36:02 46° NNW 05:53:18 10° NE visible
01 May 11.5 07:40:44 10° WNW 07:51:15 20° NW 08:03:35 10° N visible
02 May 11.1 06:24:36 10° W 06:35:52 30° NNW 06:50:55 10° NNE visible
03 May 11.6 07:27:27 10° WNW 07:35:42 16° NW 07:45:15 10° N visible
04 May 11.3 06:10:36 10° W 06:20:24 25° NNW 06:33:28 10° NNE visible
05 May 11.8 07:15:47 10° NW 07:20:18 12° NW 07:25:16 10° NNW visible
06 May 11.5 05:57:01 10° WNW 06:05:06 19° NNW 06:15:32 10° N visible
08 May 11.7 05:44:15 10° WNW 05:49:57 14° NNW 05:56:48 10° N visible
